Location: Wellington
(41.3000°S, 174.7830°E)
Time: 12:34:20
(UTC+12:00)

Daily predictions for brighter satellites

Satellite Brightness Start Highest point End
(mag) Time Altitude Azimuth Time Altitude Azimuth Time Altitude Azimuth
ATLAS CENTAUR R/B 3.5 17:39:08 10° SSE 17:40:07 11° SE 17:41:06 10° SE
Cosmos 1354 Rocket 4.0 17:39:03 10° SSW 17:44:25 81° ESE 17:49:41 10° NNE
USA 234 3.6 17:38:11 10° SE 17:44:36 52° NE 17:50:59 10° NNW
Cosmos 1633 4.0 17:42:36 10° NE 17:45:09 19° E 17:47:44 10° SE
SL-16 R/B 3.6 17:41:36 10° NE 17:45:26 19° E 17:49:18 10° ESE
Cosmos 1076 Rocket 4.1 17:43:41 10° NNE 17:47:35 35° E 17:51:35 10° SSE
Cosmos 1606 3.6 17:45:11 10° SSE 17:48:29 26° ESE 17:51:43 10° NE
IRIDIUM 104 4.4 17:44:16 10° S 17:49:32 65° E 17:54:45 10° NNE
CZ-4B R/B 1.3 17:47:35 10° NNE 17:50:35 53° ESE 17:53:40 10° S
Atlas Centaur 2 3.9 17:46:42 10° NW 17:50:38 24° N 17:55:19 10° NE
Cosmos 2151 4.2 17:49:06 10° NE 17:52:19 21° E 17:55:34 10° SE
Meteor PRIRODA 3.6 17:51:44 10° SSE 17:55:32 77° ENE 17:59:15 10° N
IRIDIUM 114 4.3 17:53:23 10° S 17:58:42 79° E 18:03:57 10° N
Cosmos 1437 Rocket 3.1 17:55:28 10° S 17:59:05 39° ESE 18:02:41 10° NNE
ERS-2 3.7 17:59:41 10° ENE 18:02:06 17° ESE 18:04:31 10° SSE
Cosmos 2292 Rocket 4.5 17:59:13 10° NNE 18:03:14 35° E 18:08:29 10° SSE
Cosmos 1356 3.7 18:00:17 10° NNW 18:03:42 73° W 18:07:11 10° S
ATLAS CENTAUR Rocket 4.0 18:02:20 10° NNW 18:03:51 12° N 18:05:13 10° NNE
Genesis I 4.2 18:00:12 10° NW 18:04:01 46° SW 18:07:49 10° SSE
Cosmos 1242 Rocket 3.8 18:01:27 10° SSE 18:04:21 21° ESE 18:07:13 10° ENE
deb Chang Zheng 4 3.7 18:01:33 10° SSE 18:05:53 55° E 18:10:11 10° N
Meteor 2-15 4.4 18:00:30 10° S 18:06:40 86° E 18:12:46 10° N
ATLAS 3B R/B 3.1 17:59:35 10° NW 18:07:06 74° SW 18:14:31 10° SSE
Cosmos 2333 Rocket 4.1 18:02:35 10° WNW 18:07:22 27° SW 18:12:12 10° S
IRIDIUM 103 4.4 18:02:30 10° S 18:07:50 86° W 18:13:05 10° N
Envisat 3.2 18:02:40 10° S 18:07:50 78° WSW 18:12:56 10° NNW
Cosmos 2058 3.4 18:03:56 10° NNW 18:08:02 63° W 18:12:14 10° S
H-2A R/B 4.0 18:09:18 10° S 18:13:00 43° WSW 18:16:36 10° NW
Cosmos 2237 Rocket 2.3 18:07:39 10° NNW 18:13:21 86° WSW 18:19:08 10° SSE
Cosmos 967 Rocket 4.5 18:07:04 10° SSW 18:13:28 64° SE 18:19:45 10° NE
SJ 16-02 2.1 18:09:46 10° S 18:13:43 30° ESE 18:17:39 10° NE
SMAP 3.5 18:09:52 10° SSE 18:14:20 40° E 18:18:44 10° NNE
Cosmos 1943 Rocket 3.3 18:15:32 10° S 18:19:58 22° SE 18:21:53 19° E
NOAA 6 4.1 18:15:33 10° SSE 18:20:42 59° E 18:25:46 10° N
H-2A R/B 3.9 18:21:39 17° ENE 18:21:39 17° ENE 18:23:35 10° NE
Cosmos 1553 Rocket 4.0 18:16:24 10° S 18:22:26 56° E 18:28:25 10° NNE
Cosmos 1689 Rocket 2.5 18:20:39 10° NE 18:23:20 35° ESE 18:26:03 10° S
Cosmos 1867 4.3 18:19:32 10° SSW 18:24:18 30° SE 18:26:56 20° E
SL-8 R/B 4.3 18:21:21 10° W 18:26:05 49° SSW 18:29:12 20° SE
Okean O Rocket 2.3 18:34:14 26° ESE 18:35:46 32° E 18:39:47 10° NNE
PSLV R/B 3.6 18:33:03 10° SSE 18:36:54 88° ENE 18:40:37 10° NNW
Cosmos 1417 Rocket 4.5 18:31:18 10° S 18:37:42 64° E 18:43:57 10° NNE
Lacrosse 5 1.9 18:34:06 10° SW 18:39:13 63° SE 18:42:25 23° ENE
Cosmos 2278 Rocket 3.0 18:33:48 10° SSW 18:39:23 54° WNW 18:44:54 10° N
Cosmos 2369 Rocket 3.7 18:38:55 10° S 18:41:48 18° SE 18:41:48 18° SE
Cosmos 1777 Rocket 4.5 18:38:02 10° SSW 18:43:19 65° WNW 18:48:30 10° N
MOS 1-B 4.3 18:39:21 10° SSE 18:45:13 69° ENE 18:51:02 10° N
Cosmos 1933 3.5 18:42:10 10° S 18:46:15 51° E 18:50:16 10° NNE
BREEZE-M DEB (TANK) 4.4 18:45:23 10° N 18:47:27 21° NE 18:47:27 21° NE
CZ-4B R/B 3.2 18:44:38 12° SSE 18:49:28 51° E 18:54:38 10° N
CZ-2C R/B 3.6 18:45:37 10° N 18:51:06 53° W 18:56:38 10° SSW
Cosmos 468 Rocket 4.2 18:50:52 10° N 18:55:56 47° ENE 18:57:19 38° ESE
NOAA 11 4.4 18:51:14 10° S 18:56:45 72° WSW 19:02:12 10° NNW
Cosmos 990 Rocket 4.3 18:52:43 10° S 18:57:38 40° ESE 18:57:40 40° ESE
Okean 3 Rocket 4.1 18:54:34 10° NNE 18:57:59 40° ENE 18:57:59 40° ENE
Cosmos 1898 Rocket 4.3 18:57:04 10° S 19:00:48 32° SE 19:00:48 32° SE
Meteor 2-3 Rocket 3.6 18:56:23 10° N 19:02:00 81° E 19:07:46 10° SSE
Cosmos 1655 Rocket 3.9 18:56:28 10° N 19:02:46 78° E 19:09:15 10° S
H-2A R/B 4.1 19:06:48 11° NNE 19:06:48 11° NNE 19:07:06 10° NNE
Cosmos 1766 Rocket 3.7 19:00:26 10° N 19:04:23 52° ENE 19:04:23 52° ENE
PAYLOAD B 4.3 18:59:41 10° SSE 19:05:22 81° WSW 19:10:55 10° NNW
Cosmos 1461 3.8 19:01:49 10° SW 19:06:05 52° WNW 19:10:30 10° NNE
ATLAS CENTAUR R/B 2.3 19:15:42 10° SSW 19:18:32 39° SSW 19:18:32 39° SSW
Cosmos 1939 Rocket 3.5 19:17:52 23° S 19:20:18 57° WSW 19:24:24 10° NNW
Cosmos 883 Rocket 4.3 19:19:44 10° S 19:26:02 77° E 19:32:18 10° NNE
Lacrosse 5 rocket 3.7 19:22:51 10° N 19:23:59 16° N 19:23:59 16° N
USA 234 3.8 19:24:16 28° SSE 19:27:35 51° SSW 19:33:53 10° WNW
CZ-2C R/B 3.1 19:25:08 27° S 19:27:42 69° WSW 19:32:28 10° NNW
SL-16 R/B 2.6 19:23:23 10° NW 19:28:59 61° WSW 19:32:00 28° S
Radarsat Rocket 4.5 19:24:33 10° S 19:30:32 58° WSW 19:36:14 10° NW
ERS-2 3.9 19:31:59 10° NNW 19:35:20 33° W 19:38:44 10° SSW
Cosmos 2266 Rocket 4.3 19:35:17 10° NNW 19:41:17 61° W 19:47:26 10° S
Cosmos 2297 4.0 19:38:56 10° SSW 19:44:41 65° WNW 19:46:44 40° N
SJ 16-02 3.6 19:48:32 10° SW 19:52:09 24° W 19:55:44 10° NNW
Cosmos 1943 Rocket 2.7 19:58:30 10° SSW 20:03:29 56° WSW 20:03:29 56° WSW
Cosmos 1607 4.4 20:00:46 10° SW 20:06:47 56° WNW 20:07:09 55° NW
Okean O Rocket 3.7 20:11:42 25° WSW 20:11:56 25° WSW 20:15:34 10° WNW
Lacrosse 5 4.0 20:17:51 10° WSW 20:21:42 22° WNW 20:21:42 22° WNW
Cosmos 2369 Rocket 4.1 20:21:48 10° SSW 20:23:38 21° SSW 20:23:38 21° SSW
NOSS 3-1 (C) 4.5 20:35:03 10° NW 20:42:38 61° W 20:42:38 61° W
